THOR ABLESTAR DEB, 1943

Orbit data source: Space-Track

THOR ABLESTAR DEB, 1943 is space debris in LEO originally from a launch on Thu, 29 Jun 1961 UTC launched from the Air Force Eastern Test Range (AFETR). Debris objects in space refer to the collection of defunct objects orbiting the Earth. Examples of debris include non-operational satellites, rocket bodies, and fragments generated from explosions, collisions, or faulty payload assembly.

Loading next visibility...
Identifier
1943, 1961-015HT
Orbit
LEO
Last TLE update
2 days ago
Origin
Manufacturer
Unknown
Mission
Spacecraft
Bus & Motor
Unknown
Mass
Unknown
Launch date (UTC)
1961-06-29 (64 years ago)
Launch vehicle
Unknown
Launch site
Air Force Eastern Test Range (AFETR)
Object type
Payload
Rocket body
Debris
Shape & HBR
Unknown
Radar Cross Section
Small (<0.1 m²)

Expand to show TLE details & history

TLE from 2 days ago
0 THOR ABLESTAR DEB
1 01943U 61015HT  25180.81888185  .00000661  00000-0  30190-3 0  9992
2 01943  66.8568   5.3705 0056056 205.2661 154.5694 14.26774700293873
Epoch: 2025-06-29T19:39Z
TLE epoch observation values (Epoch: 2025-06-29T19:39:11.391Z)
Latitude
-0.00002°
Longitude
152.43545°
Altitude
841.045 km
Speed
7.414 km/s
True Right ascension
00h 21m 28s
True Declination
0° 00' 00"
Sunlit
Object was in daylight at epoch
Visualization orbit readout
Latitude
31.57937°
Longitude
-47.13573°
Altitude
784.608 km
Speed
7.476 km/s
Apparent Right ascension
11h 38m 02s
Apparent Declination
-1° 47' 27"
Sunlit
Object is in daylight
Visualization observer readout
Local Sidereal Time
00:21:34
Azimuth
17.301° NNE
Elevation
-50.613°
Doppler factor
1
Orbital elements
Apogee altitude
841.134 km
Perigee altitude
760.648 km
Semi-major axis
7,179.028 km
Eccentricity
0.00561
Inclination
66.8568°
RAAN
5.3705°
Arg. of periapsis
205.2661°
True anomaly
Unknown
Mean anomaly
154.5694°
Eccentric anomaly
Unknown
Mean motion
3.56816 °/min
Orbital period
100.89 mins
BSTAR
0.0003019
Loading maneuver chart data...
Loading SW <> Apogee altitude chart data...

THOR ABLESTAR DEB Visibility forecast

Observer location: undefined°, undefined°

Span
Click to sort rows by Start time (UTC) header in descending order
Start Az.
Max El. time (UTC)
Max El. Az.
Max El.
End time (UTC)
End Az.
10 mins2025-07-01 13:50:44.943Z212.881° SW2025-07-01 13:55:44.943Z339.733° N44.162°2025-07-01 14:00:44.943Z26.49° NE
4 mins2025-07-01 15:38:44.943Z303.507° NW2025-07-01 15:39:44.943Z315.331° NNW14.374°2025-07-01 15:42:44.943Z349.191° N
8 mins2025-07-01 22:41:44.943Z336.673° NNW2025-07-01 22:45:44.943Z91.913° ESE43.732°2025-07-01 22:49:44.943Z144.868° SSE
|